(200089) = 1993 FY9 = 2006 JM29

Discovered at La Silla on 1993-03-17 by UESAC.

Orbit

Orbit type: Main Belt

Note: WebGL enabled browser required.

epoch2023-02-25.0
epoch JD2460000.5
perihelion date2022-11-18.33932
perihelion JD2459901.83932
argument of perihelion (°)56.90453
ascending node (°)122.73569
inclination (°)2.87818
eccentricity0.0947754
perihelion distance (AU)2.3732434
Tisserand w.r.t. Jupiter3.4
ΔV w.r.t. Earth (km/sec)9.7
semimajor axis (AU)2.6217178
mean anomaly (°)22.90704
mean daily motion (°/day)0.23218010
aphelion distance (AU)2.870
period (years)4.25
P-vector [x]-0.99909134
P-vector [y]-0.01044755
P-vector [z]0.04132006
Q-vector [x]-0.00569986
Q-vector [y]-0.92802844
Q-vector [z]-0.37246574
absolute magnitude16.77
phase slope0.15
uncertainty0
referenceMPO 745323
observations used323
oppositions19
arc length (days)11049
first opposition used1993
last opposition used2023
residual rms (arc-secs)0.68
perturbers coarse indicatorM-v
perturbers precise indicator003Ek
first observation date used1993-03-18.0
last observation date used2023-06-18.0
computer nameMPCLINUX
JD of orbit computation2456819.498610
perihelion JD uncertainty (days)1.0671E-04
argument of perihelion uncertainty (°)1.0335E-04
ascending node uncertainty (°)9.9538E-05
inclination uncertainty (°)4.6658E-06
eccentricity uncertainty 5.1276E-08
perihelion distance uncertainty (AU)1.3620E-07
Minimum Orbit Intersection Distances (in AU)
for orbit epoch: 2460000.5, reference: E2023-M50
Mercury1.9635
Venus1.65326
Earth1.37845
Mars0.71516
Jupiter2.08647
Saturn6.38621
Uranus16.0604
Neptune26.9987

Observations

332 total observations over interval: 1993 03 17.19062 – 2023 06 18.338854
These data are available for download (format description).

Date (UT) J2000 RA J2000 Dec Magn Location Ref
1993 03 17.19062 12 36 41.03 +00 41 31.7 19.4   809 – European Southern Observatory, La Silla MPC 23442
1993 03 18.21840 12 35 53.48 +00 47 58.4 18.7   809 – European Southern Observatory, La Silla MPC 23442
1993 03 23.12188 12 31 58.57 +01 18 48.2 20.4   809 – European Southern Observatory, La Silla MPC 23442
1997 01 31.43983 10 32 44.99 +11 07 46.2 20.0 V 691 – Steward Observatory, Kitt Peak-Spacewatch MPS 171577
1997 01 31.46109 10 32 44.19 +11 07 52.5 20.0 V 691 – Steward Observatory, Kitt Peak-Spacewatch MPS 171577
1997 01 31.48237 10 32 43.36 +11 07 59.3 20.1 V 691 – Steward Observatory, Kitt Peak-Spacewatch MPS 171577
1999 10 17.30218 01 01 33.69 +01 58 24.5 21.0 V 691 – Steward Observatory, Kitt Peak-Spacewatch MPS 171577
1999 10 17.32959 01 01 32.29 +01 58 15.6 21.1 V 691 – Steward Observatory, Kitt Peak-Spacewatch MPS 171577
1999 10 17.35900 01 01 30.71 +01 58 06.9 21.4 V 691 – Steward Observatory, Kitt Peak-Spacewatch MPS 171577
2001 02 16.10752 07 39 59.09 +21 42 48.1 20.6 V 691 – Steward Observatory, Kitt Peak-Spacewatch MPS 171577
2001 02 16.12967 07 39 58.29 +21 42 51.7 21.0 V 691 – Steward Observatory, Kitt Peak-Spacewatch MPS 171577
2001 02 16.15189 07 39 57.54 +21 42 54.9 21.1 V 691 – Steward Observatory, Kitt Peak-Spacewatch MPS 171577
2003 08 25.29373 00 05 41.87 -02 48 12.1 19.1 R 807 – Cerro Tololo Observatory, La Serena MPS 171577
2003 08 25.39370 00 05 38.31 -02 48 42.2   807 – Cerro Tololo Observatory, La Serena MPS 171577
2003 09 27.22761 23 40 40.44 -05 57 29.6 21.6 V 691 – Steward Observatory, Kitt Peak-Spacewatch MPS 171577
2003 09 27.25709 23 40 38.98 -05 57 39.3 21.5 V 691 – Steward Observatory, Kitt Peak-Spacewatch MPS 171577
2003 09 27.29028 23 40 37.34 -05 57 50.0 22.2 V 691 – Steward Observatory, Kitt Peak-Spacewatch MPS 171577
2004 12 09.36989 06 12 12.23 +20 45 04.9 20.4 V 691 – Steward Observatory, Kitt Peak-Spacewatch MPS 171577
2004 12 09.40230 06 12 10.37 +20 45 06.2 20.5 V 691 – Steward Observatory, Kitt Peak-Spacewatch MPS 171577
2004 12 09.42902 06 12 08.85 +20 45 07.3 20.4 V 691 – Steward Observatory, Kitt Peak-Spacewatch MPS 171577
2006 04 08.43187 15 11 08.01 -13 00 19.8   691 – Steward Observatory, Kitt Peak-Spacewatch MPS 171577
2006 04 08.44920 15 11 07.45 -13 00 16.5   691 – Steward Observatory, Kitt Peak-Spacewatch MPS 171577
2006 04 08.46654 15 11 06.87 -13 00 12.9   691 – Steward Observatory, Kitt Peak-Spacewatch MPS 171577
2006 04 21.27915 15 02 39.07 -12 14 12.4   691 – Steward Observatory, Kitt Peak-Spacewatch MPS 171577
2006 04 21.29647 15 02 38.21 -12 14 09.7   691 – Steward Observatory, Kitt Peak-Spacewatch MPS 171577
2006 04 21.31380 15 02 37.36 -12 14 04.8   691 – Steward Observatory, Kitt Peak-Spacewatch MPS 171577
2006 05 03.20814 14 52 28.81 -11 27 47.6 19.9 V 691 – Steward Observatory, Kitt Peak-Spacewatch MPS 171459
2006 05 03.22544 14 52 27.82 -11 27 43.7 20.1 V 691 – Steward Observatory, Kitt Peak-Spacewatch MPS 171459
2006 05 03.24275 14 52 26.89 -11 27 39.8 20.3 V 691 – Steward Observatory, Kitt Peak-Spacewatch MPS 171459
2006 05 08.21305 14 48 01.54 -11 09 26.7 20.3 V 691 – Steward Observatory, Kitt Peak-Spacewatch MPS 171459
2006 05 08.23037 14 48 00.59 -11 09 23.2 20.1 V 691 – Steward Observatory, Kitt Peak-Spacewatch MPS 171459
2006 05 08.24768 14 47 59.64 -11 09 19.5 20.0 V 691 – Steward Observatory, Kitt Peak-Spacewatch MPS 171459
2008 10 25.41270 04 37 35.61 +18 15 37.1 21.0 V G96 – Mt. Lemmon Survey MPS 261220
2008 10 25.41705 04 37 35.47 +18 15 36.9 20.4 V G96 – Mt. Lemmon Survey MPS 261220
2008 10 25.42147 04 37 35.32 +18 15 36.2 20.6 V G96 – Mt. Lemmon Survey MPS 261220
2008 10 25.42584 04 37 35.22 +18 15 36.1 20.4 V G96 – Mt. Lemmon Survey MPS 261220
2008 11 20.21741 04 18 07.22 +17 25 26.7 20.3 V 691 – Steward Observatory, Kitt Peak-Spacewatch MPS 265111
2008 11 20.23505 04 18 06.17 +17 25 24.6 20.2 V 691 – Steward Observatory, Kitt Peak-Spacewatch MPS 265111
2008 11 20.25268 04 18 05.11 +17 25 22.4 20.1 V 691 – Steward Observatory, Kitt Peak-Spacewatch MPS 265111
2008 12 05.23252 04 03 22.78 +16 54 52.0 19.7 V G96 – Mt. Lemmon Survey MPS 267349
2008 12 05.23921 04 03 22.35 +16 54 51.2 19.9 V G96 – Mt. Lemmon Survey MPS 267349
2008 12 05.24588 04 03 21.99 +16 54 50.6 19.8 V G96 – Mt. Lemmon Survey MPS 267349
2008 12 05.25255 04 03 21.56 +16 54 50.0 19.9 V G96 – Mt. Lemmon Survey MPS 267349
2008 12 30.18560 03 44 57.58 +16 30 40.8 20.8 V G96 – Mt. Lemmon Survey MPS 271685
2008 12 30.19411 03 44 57.37 +16 30 40.4 20.6 V G96 – Mt. Lemmon Survey MPS 271685
2008 12 30.20057 03 44 57.19 +16 30 40.5 20.5 V G96 – Mt. Lemmon Survey MPS 271685
2008 12 30.20704 03 44 56.97 +16 30 40.2 20.6 V G96 – Mt. Lemmon Survey MPS 271685
2010 03 18.32568 12 52 24.56 -00 52 56.2 19.7   704 – Lincoln Laboratory ETS, New Mexico MPS 320513
2010 03 18.33670 12 52 24.01 -00 52 54.1 19.9   704 – Lincoln Laboratory ETS, New Mexico MPS 320513
2010 03 18.34770 12 52 23.58 -00 52 49.8 20.2   704 – Lincoln Laboratory ETS, New Mexico MPS 320513
2010 03 18.35873 12 52 23.05 -00 52 45.8 20.2   704 – Lincoln Laboratory ETS, New Mexico MPS 320513
2010 03 21.44121 12 50 04.33 -00 34 07.1 20.0 V 291 – LPL/Spacewatch II MPS 320513
2010 03 21.44735 12 50 04.04 -00 34 04.9 20.1 V 291 – LPL/Spacewatch II MPS 320513
2010 03 21.45334 12 50 03.75 -00 34 02.7 20.1 V 291 – LPL/Spacewatch II MPS 320513
2010 04 03.396821 12 39 30.854 +00 44 06.63 19.39 i F51 – Pan-STARRS 1, Haleakala MPS 338754
2010 04 03.405326 12 39 30.413 +00 44 09.36 19.43 i F51 – Pan-STARRS 1, Haleakala MPS 338754
2010 04 08.31288 12 35 29.43 +01 11 15.5 20.2   704 – Lincoln Laboratory ETS, New Mexico MPS 322051
2010 04 08.32424 12 35 28.88 +01 11 20.5 19.8   704 – Lincoln Laboratory ETS, New Mexico MPS 322051
2010 04 08.33560 12 35 28.26 +01 11 23.4 19.9   704 – Lincoln Laboratory ETS, New Mexico MPS 322051
2011 07 01.41349 21 17 45.27 -15 49 13.1 21.6 V G96 – Mt. Lemmon Survey MPS 386225
2011 07 01.42167 21 17 45.06 -15 49 14.5 21.5 V G96 – Mt. Lemmon Survey MPS 386225
2011 07 01.42979 21 17 44.80 -15 49 16.1 21.2 V G96 – Mt. Lemmon Survey MPS 386225
2011 07 01.43786 21 17 44.62 -15 49 18.0 21.2 V G96 – Mt. Lemmon Survey MPS 386225
2011 07 26.44924 21 00 40.968 -17 30 25.61 20.4 w F51 – Pan-STARRS 1, Haleakala MPS 387692
2011 07 26.46304 21 00 40.215 -17 30 29.50 20.4 w F51 – Pan-STARRS 1, Haleakala MPS 387692
2011 07 26.47677 21 00 39.479 -17 30 33.32 20.6 w F51 – Pan-STARRS 1, Haleakala MPS 387692
2012 11 02.327521 02 40 10.990 +10 57 31.19 20.2 i F51 – Pan-STARRS 1, Haleakala MPS 441214
2012 11 02.339678 02 40 10.296 +10 57 28.28 20.0 i F51 – Pan-STARRS 1, Haleakala MPS 441214
2012 11 03.30094 02 39 17.35 +10 53 25.2 20.3 V G96 – Mt. Lemmon Survey MPS 441214
2012 11 03.30800 02 39 16.95 +10 53 23.4 20.1 V G96 – Mt. Lemmon Survey MPS 441214
2012 11 03.31500 02 39 16.56 +10 53 21.8 20.0 V G96 – Mt. Lemmon Survey MPS 441214
2012 11 03.32207 02 39 16.16 +10 53 20.1 20.1 V G96 – Mt. Lemmon Survey MPS 441214
2012 11 04.32373 02 38 21.12 +10 49 08.7 19.8 V G96 – Mt. Lemmon Survey MPS 441214
2012 11 04.33075 02 38 20.72 +10 49 07.3 20.4 V G96 – Mt. Lemmon Survey MPS 441214
2012 11 04.33778 02 38 20.32 +10 49 05.1 19.7 V G96 – Mt. Lemmon Survey MPS 441214
2012 11 04.34474 02 38 19.93 +10 49 03.6 20.1 V G96 – Mt. Lemmon Survey MPS 441214
2012 12 06.20160 02 14 28.14 +09 17 53.0 20.8 V G96 – Mt. Lemmon Survey MPS 445736
2012 12 06.20682 02 14 27.96 +09 17 53.0 20.7 V G96 – Mt. Lemmon Survey MPS 445736
2012 12 06.21208 02 14 27.81 +09 17 52.5 21.1 V G96 – Mt. Lemmon Survey MPS 445736
2012 12 06.21738 02 14 27.67 +09 17 52.3 20.6 V G96 – Mt. Lemmon Survey MPS 445736
2014 01 29.41231 10 49 04.49 +09 37 48.4 20.6 V 703 – Catalina Sky Survey MPS 499884
2014 01 29.41983 10 49 04.16 +09 37 49.4 20.6 V 703 – Catalina Sky Survey MPS 499884
2014 01 29.42735 10 49 03.98 +09 37 53.2 20.1 V 703 – Catalina Sky Survey MPS 499884
2014 01 29.43487 10 49 03.78 +09 37 54.5 19.7 V 703 – Catalina Sky Survey MPS 499884
2014 01 29.44210 10 49 03.61 +09 37 56.8 20.2 V 703 – Catalina Sky Survey MPS 499884
2014 01 29.45178 10 49 03.32 +09 37 59.2 20.5 V 703 – Catalina Sky Survey MPS 499884
2014 01 29.45441 10 49 03.26 +09 38 00.0 20.0 V 703 – Catalina Sky Survey MPS 499884
